This is the latest recevied weather packets stored in our database for station/object N3FAA. If no packets are shown the sender has not sent any weather packets the latest 10 day(s).
| Time | Temp. | Humidity | Pressure | Rain* | Wind** | Luminosity | Snow |
|---|---|---|---|---|---|---|---|
| 1777831070 | 16.67° C | 61% | 1009.6 hPa | 0 mm | - | 974 W/m² | - |
| 1777830769 | 16.67° C | 59% | 1009.9 hPa | 0 mm | - | 975 W/m² | - |
| 1777830464 | 17.22° C | 60% | 1010.1 hPa | 0 mm | - | 941 W/m² | - |
| 1777830162 | 17.78° C | 58% | 1010.1 hPa | 0 mm | - | 941 W/m² | - |
| 1777829862 | 16.67° C | 60% | 1010.2 hPa | 0 mm | - | 829 W/m² | - |
| 1777829559 | 16.67° C | 60% | 1010.1 hPa | 0 mm | - | 778 W/m² | - |
| 1777829256 | 16.11° C | 62% | 1010.1 hPa | 0 mm | - | 802 W/m² | - |
| 1777828953 | 16.67° C | 63% | 1010 hPa | 0 mm | - | 793 W/m² | - |
| 1777828649 | 16.67° C | 62% | 1010.3 hPa | 0 mm | - | 796 W/m² | - |
| 1777828346 | 16.67° C | 62% | 1009.6 hPa | 0 mm | - | 774 W/m² | - |
| 1777828043 | 16.67° C | 61% | 1009.6 hPa | 0 mm | - | 762 W/m² | - |
| 1777827740 | 16.11° C | 62% | 1009.9 hPa | 0 mm | - | 718 W/m² | - |
| 1777827437 | 16.67° C | 63% | 1009.5 hPa | 0 mm | - | 721 W/m² | - |
| 1777827134 | 16.11° C | 62% | 1009.6 hPa | 0 mm | - | 757 W/m² | - |
| 1777826830 | 16.67° C | 59% | 1009.4 hPa | 0 mm | - | 737 W/m² | - |
| 1777826528 | 16.11° C | 61% | 1009.5 hPa | 0 mm | - | 721 W/m² | - |
| 1777826224 | 16.67° C | 62% | 1009.3 hPa | 0 mm | - | 697 W/m² | - |
| 1777825922 | 16.11° C | 63% | 1009.3 hPa | 0 mm | - | 655 W/m² | - |
| 1777825618 | 16.11° C | 64% | 1009.5 hPa | 0 mm | - | 639 W/m² | - |
| 1777825317 | 16.11° C | 63% | 1009.5 hPa | 0 mm | - | 634 W/m² | - |
| 1777825013 | 16.11° C | 65% | 1009.4 hPa | 0 mm | - | 614 W/m² | - |
| 1777824709 | 15.56° C | 64% | 1009.4 hPa | 0 mm | - | 576 W/m² | - |
| 1777824406 | 15.56° C | 65% | 1009.2 hPa | 0 mm | - | 529 W/m² | - |
| 1777824102 | 16.11° C | 64% | 1009.2 hPa | 0 mm | - | 509 W/m² | - |
| 1777823798 | 16.11° C | 63% | 1009.2 hPa | 0 mm | - | 454 W/m² | - |
* Rain latest hour (hover to see other rain measurements)
** Current wind speed in m/s (hover to see current wind gust speed)